sat.trackr.live / text

‹ back to catalog

STARLINK-33680

NORAD 63287 · 2025-053Y

PAYLOAD ACTIVE UNKNOWN

§ Identity

Operator
Country
US
Launch date
2025-03-15
Launch site
AFETR
Launch vehicle
Mass (kg)
RCS (m²)

Purposes: comms

External: N2YO · Heavens-Above · Gunter

§ Orbital elements

Epoch: 2026-05-25T02:28:51.494592Z

Period
94.27 min
Inclination
42.9984°
Eccentricity
0.0001370
Mean motion
15.27578577 rev/d
Perigee alt
482.1 km
Apogee alt
484.0 km
Semi-major
6,861.2 km
B*
5.0482e-4
RAAN
169.9095°
Arg perigee
272.5631°
Mean anomaly
87.5064°
Rev number
6,793

§ Raw data

STARLINK-336801 63287U 25053Y   26145.10337378  .00013655  00000+0  50482-3 0  99922 63287  42.9984 169.9095 0001370 272.5631  87.5064 15.27578577 67939

JSON: /api/v1/satellites/63287 · /tle

For live sub-satellite position, see the globe view (requires WebGL).

§ Visibility from observer

Set your observer location to see the next 7 days of passes ≥ 10°. The values pass through the URL so the page stays shareable.

No JS? Fill the form by hand. The geolocation button needs JavaScript.